Location: ???????
(55.4362°N, 38.1183°E)
Time: 03:31:28
(UTC+00:00)

Cosmos 1656 Rocket - Pass Details

Date: 17 June 2021
Orbit: 794 x 847 km, 71.1° (Epoch: 26 July)

Event Time Altitude Azimuth Distance (km) Brightness Sun altitude
Rises 23:17:27 0° 324° (NW) 3,421 7.3 -7.8°
Reaches altitude 10° 23:20:01 10° 318° (NW) 2,483 6.4 -7.7°
Maximum altitude 23:25:19 42° 249° (WSW) 1,204 4.2 -7.3°
Drops below altitude 10° 23:30:36 10° 181° (S) 2,461 5.6 -7.0°
Enters shadow 23:32:20 - 176° (S) 3,093 6.1 -6.9°
